Location: Laverne
(36.7100°N, 99.8930°W)
Time: 22:15:53
(UTC-06:00)

CZ-3A R/B - Pass Details

Date: 19 October 2017
Orbit: 396 x 34993 km, 25.0° (Epoch: 17 November)

Event Time Altitude Azimuth Distance (km) Brightness Sun altitude
Exits shadow 05:37:43 24° 184° (S) 1,860 4.3 -27.4°
Maximum altitude 05:38:41 25° 169° (SSE) 2,052 4.7 -27.2°
Drops below altitude 10° 05:48:50 10° 119° (ESE) 6,149 7.8 -25.2°
Sets 06:02:06 0° 111° (ESE) 11,231 9.5 -22.5°
